Location: Newark
(50.8086°N, 4.3114°E)
Time: 22:29:49
(UTC+00:00)

CAS-4A - Visible Passes

Search period start: 23 January 2020 00:00
Search period end: 02 February 2020 00:00
Orbit: 529 x 544 km, 43.0° (Epoch: 23 January)

Date Brightness Start Highest point End Pass type
(mag) Time Alt. Az. Time Alt. Az. Time Alt. Az.
23 Jan ? 03:53:20 11° ESE 03:53:20 11° ESE 03:53:39 10° ESE visible
23 Jan ? 05:28:41 23° SSW 05:29:48 26° S 05:33:15 10° SE visible
24 Jan ? 05:18:54 25° SSW 05:19:26 25° S 05:22:50 10° SE visible
25 Jan ? 05:09:07 24° S 05:09:07 24° S 05:12:24 10° SE visible
25 Jan ? 06:47:05 10° SW 06:48:18 11° SSW 06:49:32 10° SSW visible
26 Jan ? 04:59:21 21° S 04:59:21 21° S 05:01:54 10° SE visible
27 Jan ? 04:49:37 18° S 04:49:37 18° S 04:51:23 10° SSE visible
28 Jan ? 04:39:56 13° SSE 04:39:56 13° SSE 04:40:48 10° SSE visible
